Owosso, MI

8:39 AM EST on February 24, 2017 (GMT -0500)
Owosso

Weather History for KRNP - February, 2014

Change the Weather History Date:

Thursday, February 20, 2014

  Actual Average (KFNT) Record (KFNT)
Temperature  
Mean Temperature 35 °F -  
Max Temperature 41 °F 35 °F 61 °F (1930)
Min Temperature 31 °F 19 °F -25 °F (2015)
Degree Days  
Heating Degree Days 30    
Moisture  
Dew Point 31 °F    
Average Humidity 88    
Maximum Humidity 100    
Minimum Humidity 64    
Precipitation  
Precipitation 0.00 in - - ()
Sea Level Pressure  
Sea Level Pressure 29.75 in    
Wind  
Wind Speed 7 mph (ESE)    
Max Wind Speed 22 mph    
Max Gust Speed 28 mph    
Visibility 6 miles    
Events Snow    
Averages and records for this station are not official NWS values.
T = Trace of Precipitation, MM = Missing Value Source: NWS Daily Summary

Daily Weather History Graph

Daily Weather History Graph

Search for Another Location

Airport or City:

Trip Planner

Search our weather history database for the weather conditions in past years. The results will help you decide how hot, cold, wet, or windy it might be!

Date:

Astronomy

Feb. 20, 2014 Rise Set
Actual Time 7:26 AM EST 6:14 PM EST
Civil Twilight 6:57 AM EST 6:43 PM EST
Nautical Twilight 6:24 AM EST 7:16 PM EST
Astronomical Twilight 5:52 AM EST 7:49 PM EST
Moon No Moon Rise 9:59 AM EST (2/20)
Length of Visible Light 11h 45m
Length of Day
10h 47m
Waning Gibbous, 71% of the Moon is Illuminated
Feb 20
Waning Gibbous
Feb 22
Last Quarter
Mar 1
New
Mar 8
First Quarter
Mar 16
Full

Hourly Weather History & Observations

Time (EST) Temp. Windchill Dew Point Humidity Pressure Visibility Wind Dir Wind Speed Gust Speed Precip Events Conditions
12:15 AM 31.3 °F 27.9 °F 25.0 °F 77% 30.00 in 10.0 mi SSW 3.5 mph - N/A   Clear
12:35 AM 32.0 °F 28.7 °F 25.5 °F 77% 30.01 in 10.0 mi SSW 3.5 mph - N/A   Clear
12:54 AM 31.8 °F 24.6 °F 25.9 °F 79% 30.02 in 10.0 mi SSW 8.1 mph - N/A   Clear
1:15 AM 31.6 °F 26.0 °F 26.2 °F 80% 30.02 in 10.0 mi SSW 5.8 mph - N/A   Clear
1:35 AM 31.6 °F 27.0 °F 26.4 °F 81% 30.01 in 10.0 mi South 4.6 mph - N/A   Clear
1:54 AM 31.6 °F 25.1 °F 26.6 °F 82% 30.01 in 10.0 mi South 6.9 mph - N/A   Clear
2:15 AM 31.8 °F 26.2 °F 26.4 °F 80% 30.01 in 10.0 mi SSW 5.8 mph - N/A   Clear
2:35 AM 31.8 °F 26.2 °F 26.2 °F 80% 30.01 in 10.0 mi South 5.8 mph - N/A   Clear
2:54 AM 31.8 °F 26.2 °F 26.2 °F 80% 30.02 in 10.0 mi SSW 5.8 mph - N/A   Clear
3:15 AM 32.0 °F 27.5 °F 26.2 °F 79% 30.01 in 10.0 mi South 4.6 mph - N/A   Clear
3:35 AM 32.0 °F 28.7 °F 26.2 °F 79% 30.01 in 10.0 mi South 3.5 mph - N/A   Clear
3:54 AM 31.3 °F 27.9 °F 25.5 °F 79% 29.99 in 10.0 mi ESE 3.5 mph - N/A   Clear
4:15 AM 31.8 °F 28.5 °F 26.2 °F 80% 29.99 in 10.0 mi ESE 3.5 mph - N/A   Scattered Clouds
4:35 AM 31.1 °F 27.7 °F 26.2 °F 82% 29.98 in 10.0 mi ESE 3.5 mph - N/A   Mostly Cloudy
4:55 AM 31.1 °F 27.7 °F 26.4 °F 83% 29.97 in 10.0 mi SE 3.5 mph - N/A   Mostly Cloudy
5:14 AM 31.1 °F 26.4 °F 26.4 °F 83% 29.96 in 10.0 mi East 4.6 mph - N/A   Mostly Cloudy
5:34 AM 31.5 °F 26.8 °F 26.4 °F 82% 29.96 in 10.0 mi East 4.6 mph - N/A   Overcast
5:55 AM 31.8 °F 27.3 °F 26.4 °F 80% 29.94 in 10.0 mi East 4.6 mph - N/A   Overcast
6:15 AM 31.8 °F 27.3 °F 26.4 °F 80% 29.94 in 10.0 mi SE 4.6 mph - N/A   Overcast
6:34 AM 32.0 °F 27.5 °F 26.4 °F 80% 29.93 in 10.0 mi ESE 4.6 mph - N/A   Overcast
6:55 AM 32.4 °F 29.1 °F 26.6 °F 79% 29.93 in 10.0 mi ESE 3.5 mph - N/A   Overcast
7:14 AM 32.4 °F 26.0 °F 26.6 °F 79% 29.91 in 10.0 mi ESE 6.9 mph - N/A   Overcast
7:35 AM 32.7 °F 27.3 °F 26.4 °F 78% 29.92 in 10.0 mi ESE 5.8 mph - N/A   Mostly Cloudy
7:55 AM 33.1 °F 27.7 °F 25.9 °F 75% 29.92 in 10.0 mi ESE 5.8 mph - N/A   Overcast
8:14 AM 33.8 °F 27.7 °F 25.5 °F 72% 29.90 in 10.0 mi ESE 6.9 mph - N/A   Overcast
8:35 AM 34.7 °F 28.1 °F 24.8 °F 67% 29.90 in 10.0 mi ESE 8.1 mph - N/A   Scattered Clouds
8:55 AM 34.9 °F 28.3 °F 24.8 °F 67% 29.89 in 10.0 mi ESE 8.1 mph - N/A   Mostly Cloudy
9:14 AM 35.6 °F 30.7 °F 24.8 °F 65% 29.92 in 10.0 mi SE 5.8 mph - N/A   Overcast
9:35 AM 36.5 °F 30.3 °F 25.3 °F 64% 29.92 in 10.0 mi SE 8.1 mph - N/A   Overcast
9:55 AM 36.5 °F 28.7 °F 25.7 °F 65% 29.90 in 10.0 mi ESE 11.5 mph 16.1 mph N/A   Overcast
10:14 AM 36.7 °F 29.4 °F 25.3 °F 64% 29.90 in 10.0 mi ESE 10.4 mph - N/A   Overcast
10:35 AM 36.7 °F 29.9 °F 25.3 °F 64% 29.87 in 7.0 mi ESE 9.2 mph - N/A   Overcast
10:54 AM 35.4 °F 26.0 °F 28.8 °F 77% 29.88 in 1.5 mi ESE 15.0 mph 27.6 mph N/A Snow Light Snow
11:15 AM 34.0 °F 24.6 °F 31.1 °F 89% 29.86 in 0.2 mi ESE 13.8 mph 23.0 mph N/A Snow Snow
11:35 AM 33.1 °F 23.0 °F 32.0 °F 96% 29.83 in 0.8 mi ESE 15.0 mph 19.6 mph N/A Snow Light Snow
11:54 AM 33.1 °F 22.6 °F 32.4 °F 97% 29.82 in 0.8 mi East 16.1 mph 21.9 mph N/A Snow Light Snow
12:15 PM 33.3 °F 23.7 °F 32.7 °F 98% 29.80 in 4.0 mi East 13.8 mph 19.6 mph N/A   Overcast
12:35 PM 33.8 °F 24.3 °F 32.9 °F 96% 29.76 in 3.0 mi East 13.8 mph 21.9 mph N/A Snow Light Snow
12:54 PM 33.8 °F 24.8 °F 32.9 °F 96% 29.74 in 3.0 mi East 12.7 mph 23.0 mph N/A Snow Light Snow
1:15 PM 34.2 °F 24.4 °F 33.1 °F 96% 29.71 in 4.0 mi East 15.0 mph 21.9 mph N/A Snow Light Snow
1:34 PM 34.3 °F 24.2 °F 33.3 °F 96% 29.71 in 4.0 mi East 16.1 mph 20.7 mph N/A Snow Light Snow
1:55 PM 34.7 °F 26.4 °F 33.4 °F 95% 29.69 in 3.0 mi East 11.5 mph 17.3 mph N/A Snow Light Snow
2:15 PM 34.7 °F 26.4 °F 33.4 °F 95% 29.69 in 3.0 mi East 11.5 mph 17.3 mph N/A Snow Light Snow
2:34 PM 34.7 °F 26.4 °F 33.8 °F 97% 29.69 in 2.5 mi East 11.5 mph - N/A Snow Light Snow
2:55 PM 34.7 °F 26.4 °F 33.8 °F 97% 29.68 in 2.5 mi East 11.5 mph - N/A Snow Light Snow
3:15 PM 35.1 °F 25.5 °F 34.3 °F 97% 29.67 in 1.8 mi ESE 15.0 mph 18.4 mph N/A Snow Light Snow
3:34 PM 35.1 °F 25.5 °F 34.5 °F 98% 29.66 in 2.0 mi ESE 15.0 mph - N/A   Overcast
3:55 PM 35.1 °F 26.4 °F 34.3 °F 97% 29.66 in 1.2 mi ESE 12.7 mph - N/A Snow Light Snow
4:15 PM 34.9 °F 25.3 °F 34.3 °F 98% 29.64 in 3.0 mi East 15.0 mph - N/A   Overcast
4:34 PM 34.9 °F 25.7 °F 34.2 °F 97% 29.63 in 7.0 mi East 13.8 mph 19.6 mph N/A   Overcast
4:55 PM 34.9 °F 26.2 °F 34.2 °F 97% 29.63 in 1.5 mi East 12.7 mph 17.3 mph N/A Snow Light Snow
5:14 PM 34.7 °F 26.4 °F 34.0 °F 97% 29.61 in 1.8 mi East 11.5 mph 18.4 mph N/A Snow Light Snow
5:35 PM 34.3 °F 26.5 °F 34.0 °F 99% 29.61 in 1.8 mi East 10.4 mph - N/A Snow Light Snow
5:54 PM 34.2 °F 26.8 °F 33.8 °F 99% 29.60 in 4.0 mi East 9.2 mph - N/A   Overcast
6:15 PM 34.2 °F 26.8 °F 33.8 °F 99% 29.57 in 5.0 mi East 9.2 mph - N/A Snow Light Snow
6:34 PM 34.2 °F 26.2 °F 33.8 °F 99% 29.55 in 5.0 mi ENE 10.4 mph - N/A   Overcast
6:55 PM 34.0 °F 26.0 °F 33.8 °F 99% 29.55 in 2.0 mi East 10.4 mph - N/A Snow Light Snow
7:15 PM 34.0 °F 25.5 °F 34.0 °F 100% 29.54 in 4.0 mi East 11.5 mph - N/A   Overcast
7:34 PM 34.3 °F 25.5 °F 34.3 °F 100% 29.52 in 2.5 mi East 12.7 mph - N/A Snow Light Snow
7:55 PM 34.7 °F 23.1 °F 34.7 °F 100% 29.48 in 7.0 mi East 21.9 mph 25.3 mph N/A   Overcast
8:14 PM 34.9 °F 28.3 °F 34.9 °F 100% 29.47 in 10.0 mi East 8.1 mph - N/A   Overcast
8:35 PM 35.1 °F 27.9 °F 35.1 °F 100% 29.47 in 10.0 mi ESE 9.2 mph - N/A   Overcast
8:55 PM 35.6 °F 28.0 °F 35.4 °F 99% 29.44 in 10.0 mi ESE 10.4 mph - N/A   Overcast
9:14 PM 35.6 °F 28.6 °F 35.6 °F 100% 29.42 in 10.0 mi ESE 9.2 mph - N/A   Overcast
9:35 PM 35.8 °F 27.8 °F 35.8 °F 100% 29.41 in 7.0 mi ESE 11.5 mph - N/A   Overcast
9:55 PM 36.5 °F 29.7 °F 36.5 °F 100% 29.41 in 4.0 mi ESE 9.2 mph - N/A   Overcast
10:15 PM 37.6 °F - 37.6 °F 100% 29.40 in 2.5 mi Calm Calm - N/A Snow Light Snow
10:35 PM 37.0 °F - 37.0 °F 100% 29.39 in 2.0 mi Calm Calm - N/A   Overcast
10:55 PM 38.7 °F 32.9 °F 38.7 °F 100% 29.37 in 2.5 mi ESE 8.1 mph 17.3 mph N/A   Overcast
11:15 PM 37.8 °F 31.8 °F 37.8 °F 100% 29.36 in 3.0 mi ESE 8.1 mph - N/A   Overcast
11:34 PM 39.2 °F 35.9 °F 39.2 °F 100% 29.35 in 4.0 mi SE 4.6 mph - N/A   Overcast
11:55 PM 41.4 °F 36.2 °F 41.4 °F 100% 29.34 in 5.0 mi SE 8.1 mph - N/A   Overcast